Year,Month,Day,Hour,Minute,Value (Times are PST for temperature in C)
2018,02,24,00,00,3.50
2018,02,24,00,01,3.50
2018,02,24,00,02,3.50
2018,02,24,00,03,3.50
2018,02,24,00,04,3.50
2018,02,24,00,05,3.50
2018,02,24,00,06,3.50
2018,02,24,00,07,3.50
2018,02,24,00,08,3.50
2018,02,24,00,09,3.50
2018,02,24,00,10,3.50
2018,02,24,00,11,3.40
2018,02,24,00,12,3.40
2018,02,24,00,13,3.50
2018,02,24,00,14,3.40
2018,02,24,00,15,3.50
2018,02,24,00,16,3.50
2018,02,24,00,17,3.50
2018,02,24,00,18,3.50
2018,02,24,00,19,3.50
2018,02,24,00,20,3.50
2018,02,24,00,21,3.50
2018,02,24,00,22,3.50
2018,02,24,00,23,3.50
2018,02,24,00,24,3.50
2018,02,24,00,25,3.40
2018,02,24,00,26,3.40
2018,02,24,00,27,3.40
2018,02,24,00,28,3.40
2018,02,24,00,29,3.40
2018,02,24,00,30,3.40
2018,02,24,00,31,3.40
2018,02,24,00,32,3.40
2018,02,24,00,33,3.30
2018,02,24,00,34,3.30
2018,02,24,00,35,3.30
2018,02,24,00,36,3.30
2018,02,24,00,37,3.30
2018,02,24,00,38,3.30
2018,02,24,00,39,3.30
2018,02,24,00,40,3.30
2018,02,24,00,41,3.30
2018,02,24,00,42,3.30
2018,02,24,00,43,3.30
2018,02,24,00,44,3.30
2018,02,24,00,45,3.30
2018,02,24,00,46,3.30
2018,02,24,00,47,3.30
2018,02,24,00,48,3.30
2018,02,24,00,49,3.30
2018,02,24,00,50,3.30
2018,02,24,00,51,3.30
2018,02,24,00,52,3.30
2018,02,24,00,53,3.30
2018,02,24,00,54,3.30
2018,02,24,00,55,3.30
2018,02,24,00,56,3.30
2018,02,24,00,57,3.30
2018,02,24,00,58,3.30
2018,02,24,00,59,3.30
2018,02,24,01,00,3.30
2018,02,24,01,01,3.30
2018,02,24,01,02,3.30
2018,02,24,01,03,3.30
2018,02,24,01,04,3.30
2018,02,24,01,05,3.30
2018,02,24,01,06,3.30
2018,02,24,01,07,3.30
2018,02,24,01,08,3.30
2018,02,24,01,09,3.30
2018,02,24,01,10,3.30
2018,02,24,01,11,3.30
2018,02,24,01,12,3.30
2018,02,24,01,13,3.30
2018,02,24,01,14,3.30
2018,02,24,01,15,3.30
2018,02,24,01,16,3.20
2018,02,24,01,17,3.20
2018,02,24,01,18,3.20
2018,02,24,01,19,3.20
2018,02,24,01,20,3.20
2018,02,24,01,21,3.20
2018,02,24,01,22,3.20
2018,02,24,01,23,3.20
2018,02,24,01,24,3.20
2018,02,24,01,25,3.20
2018,02,24,01,26,3.20
2018,02,24,01,27,3.20
2018,02,24,01,28,3.20
2018,02,24,01,29,3.20
2018,02,24,01,30,3.20
2018,02,24,01,31,3.20
2018,02,24,01,32,3.20
2018,02,24,01,33,3.20
2018,02,24,01,34,3.20
2018,02,24,01,35,3.20
2018,02,24,01,36,3.20
2018,02,24,01,37,3.20
2018,02,24,01,38,3.20
2018,02,24,01,39,3.20
2018,02,24,01,40,3.20
2018,02,24,01,41,3.20
2018,02,24,01,42,3.20
2018,02,24,01,43,3.20
2018,02,24,01,44,3.20
2018,02,24,01,45,3.20
2018,02,24,01,46,3.20
2018,02,24,01,47,3.20
2018,02,24,01,48,3.20
2018,02,24,01,49,3.20
2018,02,24,01,50,3.20
2018,02,24,01,51,3.20
2018,02,24,01,52,3.20
2018,02,24,01,53,3.20
2018,02,24,01,54,3.20
2018,02,24,01,55,3.20
2018,02,24,01,56,3.20
2018,02,24,01,57,3.20
2018,02,24,01,58,3.20
2018,02,24,01,59,3.20
2018,02,24,02,00,3.10
2018,02,24,02,01,3.10
2018,02,24,02,02,3.10
2018,02,24,02,03,3.10
2018,02,24,02,04,3.10
2018,02,24,02,05,3.10
2018,02,24,02,06,3.10
2018,02,24,02,07,3.10
2018,02,24,02,08,3.10
2018,02,24,02,09,3.10
2018,02,24,02,10,3.10
2018,02,24,02,11,3.10
2018,02,24,02,12,3.10
2018,02,24,02,13,3.10
2018,02,24,02,14,3.10
2018,02,24,02,15,3.10
2018,02,24,02,16,3.10
2018,02,24,02,17,3.00
2018,02,24,02,18,3.00
2018,02,24,02,19,3.00
2018,02,24,02,20,3.00
2018,02,24,02,21,3.00
2018,02,24,02,22,3.00
2018,02,24,02,23,3.00
2018,02,24,02,24,3.00
2018,02,24,02,25,3.00
2018,02,24,02,26,3.00
2018,02,24,02,27,3.00
2018,02,24,02,28,3.00
2018,02,24,02,29,3.00
2018,02,24,02,30,3.00
2018,02,24,02,31,3.00
2018,02,24,02,32,3.00
2018,02,24,02,33,3.00
2018,02,24,02,34,3.00
2018,02,24,02,35,3.00
2018,02,24,02,36,3.00
2018,02,24,02,37,3.00
2018,02,24,02,38,3.00
2018,02,24,02,39,3.00
2018,02,24,02,40,3.00
2018,02,24,02,41,3.00
2018,02,24,02,42,3.00
2018,02,24,02,43,3.00
2018,02,24,02,44,3.00
2018,02,24,02,45,3.00
2018,02,24,02,46,3.00
2018,02,24,02,47,3.00
2018,02,24,02,48,3.00
2018,02,24,02,49,3.00
2018,02,24,02,50,3.00
2018,02,24,02,51,3.00
2018,02,24,02,52,3.00
2018,02,24,02,53,3.00
2018,02,24,02,54,2.90
2018,02,24,02,55,2.90
2018,02,24,02,56,2.90
2018,02,24,02,57,2.90
2018,02,24,02,58,2.90
2018,02,24,02,59,2.90
2018,02,24,03,00,2.90
2018,02,24,03,01,2.90
2018,02,24,03,02,2.80
2018,02,24,03,03,2.80
2018,02,24,03,04,2.80
2018,02,24,03,05,2.80
2018,02,24,03,06,2.80
2018,02,24,03,07,2.80
2018,02,24,03,08,2.80
2018,02,24,03,09,2.70
2018,02,24,03,10,2.70
2018,02,24,03,11,2.70
2018,02,24,03,12,2.70
2018,02,24,03,13,2.70
2018,02,24,03,14,2.70
2018,02,24,03,15,2.70
2018,02,24,03,16,2.60
2018,02,24,03,17,2.60
2018,02,24,03,18,2.60
2018,02,24,03,19,2.60
2018,02,24,03,20,2.60
2018,02,24,03,21,2.60
2018,02,24,03,22,2.50
2018,02,24,03,23,2.50
2018,02,24,03,24,2.50
2018,02,24,03,25,2.40
2018,02,24,03,26,2.40
2018,02,24,03,27,2.40
2018,02,24,03,28,2.30
2018,02,24,03,29,2.30
2018,02,24,03,30,2.30
2018,02,24,03,31,2.30
2018,02,24,03,32,2.20
2018,02,24,03,33,2.20
2018,02,24,03,34,2.20
2018,02,24,03,35,2.10
2018,02,24,03,36,2.10
2018,02,24,03,37,2.00
2018,02,24,03,38,2.00
2018,02,24,03,39,1.90
2018,02,24,03,40,1.90
2018,02,24,03,41,1.90
2018,02,24,03,42,1.80
2018,02,24,03,43,1.80
2018,02,24,03,44,1.80
2018,02,24,03,45,1.80
2018,02,24,03,46,1.80
2018,02,24,03,47,1.70
2018,02,24,03,48,1.70
2018,02,24,03,49,1.70
2018,02,24,03,50,1.60
2018,02,24,03,51,1.60
2018,02,24,03,52,1.60
2018,02,24,03,53,1.60
2018,02,24,03,54,1.60
2018,02,24,03,55,1.60
2018,02,24,03,56,1.60
2018,02,24,03,57,1.60
2018,02,24,03,58,1.60
2018,02,24,03,59,1.60
2018,02,24,04,00,1.70
2018,02,24,04,01,1.80
2018,02,24,04,02,1.80
2018,02,24,04,03,1.90
2018,02,24,04,04,1.90
2018,02,24,04,05,2.00
2018,02,24,04,06,2.10
2018,02,24,04,07,2.20
2018,02,24,04,08,2.30
2018,02,24,04,09,2.30
2018,02,24,04,10,2.30
2018,02,24,04,11,2.40
2018,02,24,04,12,2.40
2018,02,24,04,13,2.40
2018,02,24,04,14,2.40
2018,02,24,04,15,2.40
2018,02,24,04,16,2.40
2018,02,24,04,17,2.40
2018,02,24,04,18,2.40
2018,02,24,04,19,2.40
2018,02,24,04,20,2.40
2018,02,24,04,21,2.40
2018,02,24,04,22,2.40
2018,02,24,04,23,2.40
2018,02,24,04,24,2.40
2018,02,24,04,25,2.40
2018,02,24,04,26,2.30
2018,02,24,04,27,2.30
2018,02,24,04,28,2.30
2018,02,24,04,29,2.20
2018,02,24,04,30,2.20
2018,02,24,04,31,2.20
2018,02,24,04,32,2.20
2018,02,24,04,33,2.20
2018,02,24,04,34,2.20
2018,02,24,04,35,2.20
2018,02,24,04,36,2.20
2018,02,24,04,37,2.20
2018,02,24,04,38,2.30
2018,02,24,04,39,2.30
2018,02,24,04,40,2.30
2018,02,24,04,41,2.30
2018,02,24,04,42,2.30
2018,02,24,04,43,2.30
2018,02,24,04,44,2.30
2018,02,24,04,45,2.30
2018,02,24,04,46,2.30
2018,02,24,04,47,2.30
2018,02,24,04,48,2.30
2018,02,24,04,49,2.30
2018,02,24,04,50,2.30
2018,02,24,04,51,2.30
2018,02,24,04,52,2.30
2018,02,24,04,53,2.30
2018,02,24,04,54,2.30
2018,02,24,04,55,2.30
2018,02,24,04,56,2.30
2018,02,24,04,57,2.30
2018,02,24,04,58,2.30
2018,02,24,04,59,2.30
2018,02,24,05,00,2.40
2018,02,24,05,01,2.40
2018,02,24,05,02,2.40
2018,02,24,05,03,2.40
2018,02,24,05,04,2.40
2018,02,24,05,05,2.40
2018,02,24,05,06,2.40
2018,02,24,05,07,2.40
2018,02,24,05,08,2.50
2018,02,24,05,09,2.40
2018,02,24,05,10,2.50
2018,02,24,05,11,2.50
2018,02,24,05,12,2.50
2018,02,24,05,13,2.50
2018,02,24,05,14,2.50
2018,02,24,05,15,2.50
2018,02,24,05,16,2.50
2018,02,24,05,17,2.50
2018,02,24,05,18,2.50
2018,02,24,05,19,2.50
2018,02,24,05,20,2.50
2018,02,24,05,21,2.50
2018,02,24,05,22,2.40
2018,02,24,05,23,2.40
2018,02,24,05,24,2.40
2018,02,24,05,25,2.40
2018,02,24,05,26,2.30
2018,02,24,05,27,2.30
2018,02,24,05,28,2.30
2018,02,24,05,29,2.30
2018,02,24,05,30,2.30
2018,02,24,05,31,2.20
2018,02,24,05,32,2.20
2018,02,24,05,33,2.20
2018,02,24,05,34,2.20
2018,02,24,05,35,2.20
2018,02,24,05,36,2.20
2018,02,24,05,37,2.20
2018,02,24,05,38,2.10
2018,02,24,05,39,2.10
2018,02,24,05,40,2.10
2018,02,24,05,41,2.10
2018,02,24,05,42,2.10
2018,02,24,05,43,2.10
2018,02,24,05,44,2.10
2018,02,24,05,45,2.10
2018,02,24,05,46,2.10
2018,02,24,05,47,2.10
2018,02,24,05,48,2.10
2018,02,24,07,48,2.30
2018,02,24,07,49,2.40
2018,02,24,07,50,2.30
2018,02,24,07,51,2.30
2018,02,24,07,52,2.30
2018,02,24,07,53,2.30
2018,02,24,07,54,2.30
2018,02,24,07,55,2.40
2018,02,24,07,56,2.40
2018,02,24,07,57,2.40
2018,02,24,07,58,2.50
2018,02,24,07,59,2.50
2018,02,24,08,00,2.60
2018,02,24,08,01,2.60
2018,02,24,08,02,2.60
2018,02,24,08,03,2.70
2018,02,24,08,04,2.80
2018,02,24,08,05,2.80
2018,02,24,08,06,2.80
2018,02,24,08,07,2.90
2018,02,24,08,08,2.90
2018,02,24,08,09,3.00
2018,02,24,08,10,3.00
2018,02,24,08,11,3.10
2018,02,24,08,12,3.10
2018,02,24,08,13,3.10
2018,02,24,08,14,3.10
2018,02,24,08,15,3.10
2018,02,24,08,16,3.10
2018,02,24,08,17,3.10
2018,02,24,08,18,3.20
2018,02,24,08,19,3.20
2018,02,24,08,20,3.20
2018,02,24,08,21,3.20
2018,02,24,08,22,3.30
2018,02,24,08,23,3.30
2018,02,24,08,24,3.30
2018,02,24,08,25,3.30
2018,02,24,08,26,3.40
2018,02,24,08,27,3.40
2018,02,24,08,28,3.40
2018,02,24,08,29,3.40
2018,02,24,08,30,3.50
2018,02,24,08,31,3.50
2018,02,24,08,32,3.60
2018,02,24,08,33,3.60
2018,02,24,08,34,3.60
2018,02,24,08,35,3.60
2018,02,24,08,36,3.60
2018,02,24,08,37,3.70
2018,02,24,08,38,3.70
2018,02,24,08,39,3.70
2018,02,24,08,40,3.80
2018,02,24,08,41,3.80
2018,02,24,08,42,3.80
2018,02,24,08,43,3.90
2018,02,24,08,44,3.90
2018,02,24,08,45,3.90
2018,02,24,08,46,4.00
2018,02,24,08,47,4.00
2018,02,24,08,48,4.00
2018,02,24,08,49,4.00
2018,02,24,08,50,4.10
2018,02,24,08,51,4.20
2018,02,24,08,52,4.20
2018,02,24,08,53,4.30
2018,02,24,08,54,4.30
2018,02,24,08,55,4.30
2018,02,24,08,56,4.20
2018,02,24,08,57,4.20
2018,02,24,08,58,4.20
2018,02,24,08,59,4.20
2018,02,24,09,00,4.20
2018,02,24,09,01,4.30
2018,02,24,09,02,4.30
2018,02,24,09,03,4.30
2018,02,24,09,04,4.30
2018,02,24,09,05,4.30
2018,02,24,09,06,4.30
2018,02,24,09,07,4.30
2018,02,24,09,08,4.30
2018,02,24,09,09,4.40
2018,02,24,09,10,4.40
2018,02,24,09,11,4.50
2018,02,24,09,12,4.50
2018,02,24,09,13,4.50
2018,02,24,09,14,4.50
2018,02,24,09,15,4.60
2018,02,24,09,16,4.50
2018,02,24,09,17,4.50
2018,02,24,09,18,4.50
2018,02,24,09,19,4.60
2018,02,24,09,20,4.60
2018,02,24,09,21,4.70
2018,02,24,09,22,4.70
2018,02,24,09,23,4.70
2018,02,24,09,24,4.70
2018,02,24,09,25,4.80
2018,02,24,09,26,4.80
2018,02,24,09,27,4.80
2018,02,24,09,28,4.80
2018,02,24,09,29,4.80
2018,02,24,09,30,4.80
2018,02,24,09,31,4.80
2018,02,24,09,32,4.80
2018,02,24,09,33,4.80
2018,02,24,09,34,4.80
2018,02,24,09,35,4.80
2018,02,24,09,36,4.80
2018,02,24,09,37,4.80
2018,02,24,09,38,4.80
2018,02,24,09,39,4.80
2018,02,24,09,40,4.80
2018,02,24,09,41,4.80
2018,02,24,09,42,4.80
2018,02,24,09,43,4.80
2018,02,24,09,44,4.80
2018,02,24,09,45,4.80
2018,02,24,09,46,4.90
2018,02,24,09,47,4.90
2018,02,24,09,48,4.90
2018,02,24,09,49,4.90
2018,02,24,09,50,5.00
2018,02,24,09,51,5.00
2018,02,24,09,52,5.00
2018,02,24,09,53,5.10
2018,02,24,09,54,5.10
2018,02,24,09,55,5.10
2018,02,24,09,56,5.10
2018,02,24,09,57,5.10
2018,02,24,09,58,5.10
2018,02,24,09,59,5.10
2018,02,24,10,00,5.10
2018,02,24,10,01,5.10
2018,02,24,10,02,5.10
2018,02,24,10,03,5.20
2018,02,24,10,04,5.20
2018,02,24,10,05,5.20
2018,02,24,10,06,5.30
2018,02,24,10,07,5.20
2018,02,24,10,08,5.20
2018,02,24,10,09,5.20
2018,02,24,10,10,5.20
2018,02,24,10,11,5.30
2018,02,24,10,12,5.30
2018,02,24,10,13,5.30
2018,02,24,10,14,5.40
2018,02,24,10,15,5.40
2018,02,24,10,16,5.40
2018,02,24,10,17,5.40
2018,02,24,10,18,5.40
2018,02,24,10,19,5.40
2018,02,24,10,20,5.50
2018,02,24,10,21,5.50
2018,02,24,10,22,5.60
2018,02,24,10,23,5.60
2018,02,24,10,24,5.60
2018,02,24,10,25,5.60
2018,02,24,10,26,5.60
2018,02,24,10,27,5.60
2018,02,24,10,28,5.50
2018,02,24,10,29,5.50
2018,02,24,10,30,5.50
2018,02,24,10,31,5.50
2018,02,24,10,32,5.50
2018,02,24,10,33,5.50
2018,02,24,10,34,5.60
2018,02,24,10,35,5.60
2018,02,24,10,36,5.60
2018,02,24,10,37,5.60
2018,02,24,10,38,5.60
2018,02,24,10,39,5.60
2018,02,24,10,40,5.70
2018,02,24,10,41,5.70
2018,02,24,10,42,5.70
2018,02,24,10,43,5.70
2018,02,24,10,44,5.70
2018,02,24,10,45,5.70
2018,02,24,10,46,5.70
2018,02,24,10,47,5.70
2018,02,24,10,48,5.60
2018,02,24,10,49,5.60
2018,02,24,10,50,5.60
2018,02,24,10,51,5.70
2018,02,24,10,52,5.70
2018,02,24,10,53,5.80
2018,02,24,10,54,5.90
2018,02,24,10,55,6.00
2018,02,24,10,56,6.00
2018,02,24,10,57,6.10
2018,02,24,10,58,6.10
2018,02,24,10,59,6.20
2018,02,24,11,00,6.20
2018,02,24,11,01,6.20
2018,02,24,11,02,6.20
2018,02,24,11,03,6.10
2018,02,24,11,04,6.10
2018,02,24,11,05,6.00
2018,02,24,11,06,5.90
2018,02,24,11,07,5.80
2018,02,24,11,08,5.80
2018,02,24,11,09,5.80
2018,02,24,11,10,5.80
2018,02,24,11,11,5.80
2018,02,24,11,12,5.90
2018,02,24,11,13,5.90
2018,02,24,11,14,5.90
2018,02,24,11,15,6.00
2018,02,24,11,16,6.00
2018,02,24,11,17,6.10
2018,02,24,11,18,6.10
2018,02,24,11,19,6.10
2018,02,24,11,20,6.10
2018,02,24,11,21,6.10
2018,02,24,11,22,6.10
2018,02,24,11,23,6.10
2018,02,24,11,24,6.10
2018,02,24,11,25,6.20
2018,02,24,11,26,6.20
2018,02,24,11,27,6.10
2018,02,24,11,28,6.10
2018,02,24,11,29,6.10
2018,02,24,11,30,6.20
2018,02,24,11,31,6.20
2018,02,24,11,32,6.30
2018,02,24,11,33,6.40
2018,02,24,11,34,6.40
2018,02,24,11,35,6.40
2018,02,24,11,36,6.50
2018,02,24,11,37,6.50
2018,02,24,11,38,6.60
2018,02,24,11,39,6.70
2018,02,24,11,40,6.70
2018,02,24,11,41,6.70
2018,02,24,11,42,6.70
2018,02,24,11,43,6.70
2018,02,24,11,44,6.70
2018,02,24,11,45,6.70
2018,02,24,11,46,6.80
2018,02,24,11,47,6.80
2018,02,24,11,48,6.90
2018,02,24,11,49,6.90
2018,02,24,11,50,6.90
2018,02,24,11,51,7.00
2018,02,24,11,52,7.00
2018,02,24,11,53,7.00
2018,02,24,11,54,7.10
2018,02,24,11,55,7.10
2018,02,24,11,56,7.20
2018,02,24,11,57,7.20
2018,02,24,11,58,7.30
2018,02,24,11,59,7.30
2018,02,24,12,00,7.30
2018,02,24,12,01,7.20
2018,02,24,12,02,7.30
2018,02,24,12,03,7.30
2018,02,24,12,04,7.40
2018,02,24,12,05,7.40
2018,02,24,12,06,7.50
2018,02,24,12,07,7.50
2018,02,24,12,08,7.60
2018,02,24,12,09,7.60
2018,02,24,12,10,7.60
2018,02,24,12,11,7.60
2018,02,24,12,12,7.60
2018,02,24,12,13,7.60
2018,02,24,12,14,7.60
2018,02,24,12,15,7.50
2018,02,24,12,16,7.50
2018,02,24,12,17,7.50
2018,02,24,12,18,7.50
2018,02,24,12,19,7.40
2018,02,24,12,20,7.40
2018,02,24,12,21,7.30
2018,02,24,12,22,7.30
2018,02,24,12,23,7.20
2018,02,24,12,24,7.20
2018,02,24,12,25,7.20
2018,02,24,12,26,7.20
2018,02,24,12,27,7.20
2018,02,24,12,28,7.20
2018,02,24,12,29,7.10
2018,02,24,12,30,7.20
2018,02,24,12,31,7.20
2018,02,24,12,32,7.20
2018,02,24,12,33,7.20
2018,02,24,12,34,7.20
2018,02,24,12,35,7.20
2018,02,24,12,36,7.20
2018,02,24,12,37,7.20
2018,02,24,12,38,7.30
2018,02,24,12,39,7.30
2018,02,24,12,40,7.30
2018,02,24,12,41,7.30
2018,02,24,12,42,7.30
2018,02,24,12,43,7.30
2018,02,24,12,44,7.30
2018,02,24,12,45,7.30
2018,02,24,12,46,7.30
2018,02,24,12,47,7.30
2018,02,24,12,48,7.30
2018,02,24,12,49,7.30
2018,02,24,12,50,7.30
2018,02,24,12,51,7.40
2018,02,24,12,52,7.40
2018,02,24,12,53,7.50
2018,02,24,12,54,7.50
2018,02,24,12,55,7.60
2018,02,24,12,56,7.60
2018,02,24,12,57,7.60
2018,02,24,12,58,7.60
2018,02,24,12,59,7.50
2018,02,24,13,00,7.50
2018,02,24,13,01,7.40
2018,02,24,13,02,7.30
2018,02,24,13,03,7.30
2018,02,24,13,04,7.30
2018,02,24,13,05,7.30
2018,02,24,13,06,7.30
2018,02,24,13,07,7.40
2018,02,24,13,08,7.40
2018,02,24,13,09,7.40
2018,02,24,13,10,7.40
2018,02,24,13,11,7.50
2018,02,24,13,12,7.50
2018,02,24,13,13,7.50
2018,02,24,13,14,7.60
2018,02,24,13,15,7.60
2018,02,24,13,16,7.60
2018,02,24,13,17,7.60
2018,02,24,13,18,7.50
2018,02,24,13,19,7.50
2018,02,24,13,20,7.50
2018,02,24,13,21,7.50
2018,02,24,13,22,7.50
2018,02,24,13,23,7.50
2018,02,24,13,24,7.50
2018,02,24,13,25,7.50
2018,02,24,13,26,7.60
2018,02,24,13,27,7.60
2018,02,24,13,28,7.60
2018,02,24,13,29,7.60
2018,02,24,13,30,7.60
2018,02,24,13,31,7.70
2018,02,24,13,32,7.70
2018,02,24,13,33,7.80
2018,02,24,13,34,7.80
2018,02,24,13,35,7.90
2018,02,24,13,36,8.00
2018,02,24,13,37,8.10
2018,02,24,13,38,8.00
2018,02,24,13,39,8.00
2018,02,24,13,40,7.90
2018,02,24,13,41,7.90
2018,02,24,13,42,7.90
2018,02,24,13,43,7.90
2018,02,24,13,44,7.90
2018,02,24,13,45,7.80
2018,02,24,13,46,7.80
2018,02,24,13,47,7.70
2018,02,24,13,48,7.70
2018,02,24,13,49,7.70
2018,02,24,13,50,7.70
2018,02,24,13,51,7.60
2018,02,24,13,52,7.60
2018,02,24,13,53,7.60
2018,02,24,13,54,7.60
2018,02,24,13,55,7.60
2018,02,24,13,56,7.60
2018,02,24,13,57,7.60
2018,02,24,13,58,7.60
2018,02,24,13,59,7.70
2018,02,24,14,00,7.70
2018,02,24,14,01,7.70
2018,02,24,14,02,7.80
2018,02,24,14,03,7.80
2018,02,24,14,04,7.80
2018,02,24,14,05,7.80
2018,02,24,14,06,7.80
2018,02,24,14,07,7.80
2018,02,24,14,08,7.80
2018,02,24,14,09,7.80
2018,02,24,14,10,7.70
2018,02,24,14,11,7.70
2018,02,24,14,12,7.60
2018,02,24,14,13,7.60
2018,02,24,14,14,7.60
2018,02,24,14,15,7.60
2018,02,24,14,16,7.50
2018,02,24,14,17,7.60
2018,02,24,14,18,7.60
2018,02,24,14,19,7.60
2018,02,24,14,20,7.70
2018,02,24,14,21,7.70
2018,02,24,14,22,7.70
2018,02,24,14,23,7.60
2018,02,24,14,24,7.60
2018,02,24,14,25,7.60
2018,02,24,14,26,7.60
2018,02,24,14,27,7.50
2018,02,24,14,28,7.50
2018,02,24,14,29,7.50
2018,02,24,14,30,7.40
2018,02,24,14,31,7.40
2018,02,24,14,32,7.40
2018,02,24,14,33,7.30
2018,02,24,14,34,7.30
2018,02,24,14,35,7.30
2018,02,24,14,36,7.30
2018,02,24,14,37,7.30
2018,02,24,14,38,7.30
2018,02,24,14,39,7.30
2018,02,24,14,40,7.30
2018,02,24,14,41,7.30
2018,02,24,14,42,7.30
2018,02,24,14,43,7.40
2018,02,24,14,44,7.40
2018,02,24,14,45,7.50
2018,02,24,14,46,7.50
2018,02,24,14,47,7.50
2018,02,24,14,48,7.50
2018,02,24,14,49,7.40
2018,02,24,14,50,7.40
2018,02,24,14,51,7.40
2018,02,24,14,52,7.40
2018,02,24,14,53,7.40
2018,02,24,14,54,7.50
2018,02,24,14,55,7.50
2018,02,24,14,56,7.50
2018,02,24,14,57,7.50
2018,02,24,14,58,7.50
2018,02,24,14,59,7.50
2018,02,24,15,00,7.40
2018,02,24,15,01,7.40
2018,02,24,15,02,7.40
2018,02,24,15,03,7.30
2018,02,24,15,04,7.30
2018,02,24,15,05,7.30
2018,02,24,15,06,7.20
2018,02,24,15,07,7.20
2018,02,24,15,08,7.20
2018,02,24,15,09,7.20
2018,02,24,15,10,7.20
2018,02,24,15,11,7.20
2018,02,24,15,12,7.20
2018,02,24,15,13,7.10
2018,02,24,15,14,7.10
2018,02,24,15,15,7.00
2018,02,24,15,16,7.00
2018,02,24,15,17,7.00
2018,02,24,15,18,7.00
2018,02,24,15,19,7.00
2018,02,24,15,20,7.00
2018,02,24,15,21,7.00
2018,02,24,15,22,7.00
2018,02,24,15,23,7.00
2018,02,24,15,24,7.10
2018,02,24,15,25,7.10
2018,02,24,15,26,7.10
2018,02,24,15,27,7.20
2018,02,24,15,28,7.20
2018,02,24,15,29,7.20
2018,02,24,15,30,7.20
2018,02,24,15,31,7.30
2018,02,24,15,32,7.30
2018,02,24,15,33,7.20
2018,02,24,15,34,7.20
2018,02,24,15,35,7.20
2018,02,24,15,36,7.20
2018,02,24,15,37,7.20
2018,02,24,15,38,7.20
2018,02,24,15,39,7.20
2018,02,24,15,40,7.20
2018,02,24,15,41,7.20
2018,02,24,15,42,7.20
2018,02,24,15,43,7.20
2018,02,24,15,44,7.20
2018,02,24,15,45,7.20
2018,02,24,15,46,7.20
2018,02,24,15,47,7.20
2018,02,24,15,48,7.20
2018,02,24,15,49,7.20
2018,02,24,15,50,7.20
2018,02,24,15,51,7.20
2018,02,24,15,52,7.20
2018,02,24,15,53,7.20
2018,02,24,15,54,7.20
2018,02,24,15,55,7.20
2018,02,24,15,56,7.20
2018,02,24,15,57,7.10
2018,02,24,15,58,7.10
2018,02,24,15,59,7.10
2018,02,24,16,00,7.10
2018,02,24,16,01,7.00
2018,02,24,16,02,7.00
2018,02,24,16,03,7.00
2018,02,24,16,04,7.00
2018,02,24,16,05,7.00
2018,02,24,16,06,7.00
2018,02,24,16,07,7.00
2018,02,24,16,08,7.00
2018,02,24,16,09,7.00
2018,02,24,16,10,7.10
2018,02,24,16,11,7.10
2018,02,24,16,12,7.10
2018,02,24,16,13,7.10
2018,02,24,16,14,7.00
2018,02,24,16,15,7.00
2018,02,24,16,16,7.00
2018,02,24,16,17,7.00
2018,02,24,16,18,7.00
2018,02,24,16,19,7.00
2018,02,24,16,20,6.90
2018,02,24,16,21,6.90
2018,02,24,16,22,6.90
2018,02,24,16,23,6.90
2018,02,24,16,24,6.90
2018,02,24,16,25,6.90
2018,02,24,16,26,6.90
2018,02,24,16,27,7.00
2018,02,24,16,28,7.00
2018,02,24,16,29,7.00
2018,02,24,16,30,7.10
2018,02,24,16,31,7.10
2018,02,24,16,32,7.10
2018,02,24,16,33,7.10
2018,02,24,16,34,7.20
2018,02,24,16,35,7.20
2018,02,24,16,36,7.20
2018,02,24,16,37,7.20
2018,02,24,16,38,7.20
2018,02,24,16,39,7.20
2018,02,24,16,40,7.20
2018,02,24,16,41,7.20
2018,02,24,16,42,7.20
2018,02,24,16,43,7.10
2018,02,24,16,44,7.10
2018,02,24,16,45,7.10
2018,02,24,16,46,7.10
2018,02,24,16,47,7.10
2018,02,24,16,48,7.10
2018,02,24,16,49,7.10
2018,02,24,16,50,7.10
2018,02,24,16,51,7.10
2018,02,24,16,52,7.10
2018,02,24,16,53,7.10
2018,02,24,16,54,7.10
2018,02,24,16,55,7.10
2018,02,24,16,56,7.10
2018,02,24,16,57,7.10
2018,02,24,16,58,7.10
2018,02,24,16,59,7.00
2018,02,24,17,00,7.10
2018,02,24,17,01,7.00
2018,02,24,17,02,7.00
2018,02,24,17,03,7.00
2018,02,24,17,04,7.00
2018,02,24,17,05,7.00
2018,02,24,17,06,6.90
2018,02,24,17,07,6.90
2018,02,24,17,08,6.90
2018,02,24,17,09,6.90
2018,02,24,17,10,6.90
2018,02,24,17,11,6.90
2018,02,24,17,12,6.90
2018,02,24,17,13,6.90
2018,02,24,17,14,6.90
2018,02,24,17,15,6.80
2018,02,24,17,16,6.80
2018,02,24,17,17,6.80
2018,02,24,17,18,6.80
2018,02,24,17,19,6.70
2018,02,24,17,20,6.70
2018,02,24,17,21,6.70
2018,02,24,17,22,6.70
2018,02,24,17,23,6.60
2018,02,24,17,24,6.60
2018,02,24,17,25,6.60
2018,02,24,17,26,6.50
2018,02,24,17,27,6.50
2018,02,24,17,28,6.50
2018,02,24,17,29,6.40
2018,02,24,17,30,6.40
2018,02,24,17,31,6.30
2018,02,24,17,32,6.30
2018,02,24,17,33,6.30
2018,02,24,17,34,6.20
2018,02,24,17,35,6.20
2018,02,24,17,36,6.10
2018,02,24,17,37,6.10
2018,02,24,17,38,6.00
2018,02,24,17,39,5.90
2018,02,24,17,40,5.90
2018,02,24,17,41,5.80
2018,02,24,17,42,5.80
2018,02,24,17,43,5.80
2018,02,24,17,44,5.70
2018,02,24,17,45,5.70
2018,02,24,17,46,5.70
2018,02,24,17,47,5.70
2018,02,24,17,48,5.60
2018,02,24,17,49,5.60
2018,02,24,17,50,5.50
2018,02,24,17,51,5.50
2018,02,24,17,52,5.50
2018,02,24,17,53,5.40
2018,02,24,17,54,5.40
2018,02,24,17,55,5.40
2018,02,24,17,56,5.30
2018,02,24,17,57,5.30
2018,02,24,17,58,5.30
2018,02,24,17,59,5.30
2018,02,24,18,00,5.30
2018,02,24,18,01,5.30
2018,02,24,18,02,5.30
2018,02,24,18,03,5.40
2018,02,24,18,04,5.40
2018,02,24,18,05,5.50
2018,02,24,18,06,5.50
2018,02,24,18,07,5.60
2018,02,24,18,08,5.60
2018,02,24,18,09,5.70
2018,02,24,18,10,5.70
2018,02,24,18,11,5.70
2018,02,24,18,12,5.70
2018,02,24,18,13,5.70
2018,02,24,18,14,5.70
2018,02,24,18,15,5.70
2018,02,24,18,16,5.70
2018,02,24,18,17,5.80
2018,02,24,18,18,5.80
2018,02,24,18,19,5.80
2018,02,24,18,20,5.80
2018,02,24,18,21,5.80
2018,02,24,18,22,5.80
2018,02,24,18,23,5.80
2018,02,24,18,24,5.80
2018,02,24,18,25,5.80
2018,02,24,18,26,5.80
2018,02,24,18,27,5.80
2018,02,24,18,28,5.80
2018,02,24,18,29,5.80
2018,02,24,18,30,5.80
2018,02,24,18,31,5.80
2018,02,24,18,32,5.80
2018,02,24,18,33,5.80
2018,02,24,18,34,5.80
2018,02,24,18,35,5.80
2018,02,24,18,36,5.80
2018,02,24,18,37,5.80
2018,02,24,18,38,5.80
2018,02,24,18,39,5.80
2018,02,24,18,40,5.80
2018,02,24,18,41,5.80
2018,02,24,18,42,5.80
2018,02,24,18,43,5.80
2018,02,24,18,44,5.80
2018,02,24,18,45,5.80
2018,02,24,18,46,5.80
2018,02,24,18,47,5.80
2018,02,24,18,48,5.80
2018,02,24,18,49,5.70
2018,02,24,18,50,5.70
2018,02,24,18,51,5.70
2018,02,24,18,52,5.70
2018,02,24,18,53,5.60
2018,02,24,18,54,5.60
2018,02,24,18,55,5.60
2018,02,24,18,56,5.60
2018,02,24,18,57,5.60
2018,02,24,18,58,5.50
2018,02,24,18,59,5.50
2018,02,24,19,00,5.40
2018,02,24,19,01,5.40
2018,02,24,19,02,5.40
2018,02,24,19,03,5.40
2018,02,24,19,04,5.40
2018,02,24,19,05,5.40
2018,02,24,19,06,5.40
2018,02,24,19,07,5.40
2018,02,24,19,08,5.40
2018,02,24,19,09,5.40
2018,02,24,19,10,5.40
2018,02,24,19,11,5.40
2018,02,24,19,12,5.40
2018,02,24,19,13,5.40
2018,02,24,19,14,5.40
2018,02,24,19,15,5.40
2018,02,24,19,16,5.40
2018,02,24,19,17,5.40
2018,02,24,19,18,5.40
2018,02,24,19,19,5.40
2018,02,24,19,20,5.40
2018,02,24,19,21,5.40
2018,02,24,19,22,5.40
2018,02,24,19,23,5.40
2018,02,24,19,24,5.40
2018,02,24,19,25,5.40
2018,02,24,19,26,5.40
2018,02,24,19,27,5.40
2018,02,24,19,28,5.30
2018,02,24,19,29,5.30
2018,02,24,19,30,5.30
2018,02,24,19,31,5.30
2018,02,24,19,32,5.30
2018,02,24,19,33,5.30
2018,02,24,19,34,5.30
2018,02,24,19,35,5.30
2018,02,24,19,36,5.30
2018,02,24,19,37,5.30
2018,02,24,19,38,5.30
2018,02,24,19,39,5.30
2018,02,24,19,40,5.30
2018,02,24,19,41,5.30
2018,02,24,19,42,5.30
2018,02,24,19,43,5.30
2018,02,24,19,44,5.30
2018,02,24,19,45,5.40
2018,02,24,19,46,5.40
2018,02,24,19,47,5.40
2018,02,24,19,48,5.40
2018,02,24,19,49,5.40
2018,02,24,19,50,5.40
2018,02,24,19,51,5.40
2018,02,24,19,52,5.40
2018,02,24,19,53,5.40
2018,02,24,19,54,5.30
2018,02,24,19,55,5.30
2018,02,24,19,56,5.30
2018,02,24,19,57,5.30
2018,02,24,19,58,5.30
2018,02,24,19,59,5.30
2018,02,24,20,00,5.30
2018,02,24,20,01,5.30
2018,02,24,20,02,5.20
2018,02,24,20,03,5.20
2018,02,24,20,04,5.20
2018,02,24,20,05,5.20